Regional Weather Roundup
Issued by NWS

Home | Current Version | Previous Version | Text Only | Print | Product List | Glossary On
Versions: 1 2 3 4 5 6 7 8 9 10 11 12 13 14 15 16 17 18 19 20 21 22 23 24 25 26 27
000
ASUS44 KBMX 241110
RWRAL

ALABAMA REGIONAL WEATHER ROUNDUP
NATIONAL WEATHER SERVICE BIRMINGHAM AL
600 AM CDT TUE OCT 24 2017

NOTE: "FAIR" INDICATES FEW OR NO CLOUDS BELOW 12,000 FEET
WITH NO SIGNIFICANT WEATHER AND/OR OBSTRUCTIONS TO VISIBILITY.

THE REMARK "TC" DENOTES TEMPERATURE IN DEGREES CELSIUS.

ALZ001>011-014-016>018-020-241200-
NORTH ALABAMA

CITY           SKY/WX    TMP DP  RH WIND       PRES   REMARKS
MUSCLE SHOALS  CLEAR     49  43  80 SW6       29.96R
HUNTSVILLE     CLEAR     49  48  97 SW5       29.94R
DECATUR        CLEAR     53  49  86 W7        29.94R
HALEYVILLE     FAIR      47  46  97 SW3       29.99R
GADSDEN        CLEAR     49  48  97 SW5         N/A
$$

ALZ012-013-022-023-030>036-040>044-241200-
WEST CENTRAL ALABAMA

CITY           SKY/WX    TMP DP  RH WIND       PRES   REMARKS
TUSCALOOSA     CLEAR     47  47 100 CALM      30.01R
DEMOPOLIS        N/A     50  46  84 W3        30.03R
$$

ALZ015-024>026-033>036-041>044-241200-
CENTRAL ALABAMA

CITY           SKY/WX    TMP DP  RH WIND       PRES   REMARKS
BIRMINGHAM     CLEAR     51  46  83 W6        29.99S
MONTGOMERY     CLEAR     53  48  83 W6        30.00R
SHELBY CO ARPT CLEAR     51  48  89 CALM      29.98R
MAXWELL AFB    CLEAR     51  51  99 W3        29.98R
GREENVILLE     NOT AVBL
SELMA          FAIR      52  46  82 W3        30.00R
PRATTVILLE     FAIR      47  47 100 CALM      29.99R
BESSEMER       FAIR      48  46  93 SW5       29.99R
TALLADEGA      FAIR      47  47  97 CALM      29.97S
PELL CITY      SUNNY     48  48 100 SW5       29.97R
MARION         NOT AVBL
SYLACAUGA      FAIR      47  47 100 W5        29.98R
$$

ALZ019-021-028-029-037-038-045>048-241200-
EAST CENTRAL ALABAMA

CITY           SKY/WX    TMP DP  RH WIND       PRES   REMARKS
ANNISTON       CLEAR     49  46  90 W6        29.96R
ALEXANDER CITY CLEAR     47  45  94 CALM      29.97R
AUBURN         CLEAR     51  50  96 W6        29.98R
$$

ALZ051>064-241200-
SOUTHWEST ALABAMA

CITY           SKY/WX    TMP DP  RH WIND       PRES   REMARKS
MOBILE         CLEAR     52  48  86 W3        30.05R
BROOKLEY FIELD CLEAR     57  48  72 W6        30.05R
EVERGREEN      CLEAR     49  47  93 CALM      30.02R
$$

ALZ049-050-065>069-241200-
SOUTHEAST ALABAMA

CITY           SKY/WX    TMP DP  RH WIND       PRES   REMARKS
DOTHAN         PTCLDY    51  51 100 SW3       30.02S
OZARK          CLEAR     50  49  95 CALM      29.99S
TROY           CLEAR     49  49 100 CALM      30.00R
EUFAULA        FAIR      49  48  97 CALM      29.96S
$$




USA.gov is the U.S. government's official web portal to all federal, state and local government web resources and services.